DW2633 Weather Reports


time (UTC)temp
F
wind
direction
speed
knots
gust
knots
rain 1hr
in
rain 24hr
in
rain mn
in
humidity
%
barometer
mb
20260903152023 70 234 3.5 0.0 0.00 0.00 0.00 93 1011.9
20260903151521 70 233 3.5 0.0 0.00 0.00 0.00 92 1011.8
20260903151021 70 235 4.3 0.0 0.00 0.00 0.00 93 1011.9
20260903150521 70 227 5.2 0.0 0.00 0.00 0.00 93 1011.9
20260903150028 70 252 5.2 0.0 0.00 0.00 0.00 93 1011.9
20260903145520 70 222 4.3 0.0 0.00 0.00 0.00 94 1012.0
20260903145019 70 227 3.5 0.0 0.00 0.00 0.00 93 1011.9
20260903144519 70 242 3.5 0.0 0.00 0.00 0.00 94 1011.9
20260903144023 69 223 2.6 0.0 0.00 0.00 0.00 94 1011.8
20260903143518 69 233 1.7 0.0 0.00 0.00 0.00 94 1011.8
20260903143037 69 224 1.7 0.0 0.00 0.00 0.00 94 1011.7
20260903142516 69 214 1.7 0.0 0.00 0.00 0.00 95 1011.7
20260903142016 69 215 2.6 0.0 0.00 0.00 0.00 95 1011.7
20260903141514 68 217 2.6 0.0 0.00 0.00 0.00 95 1011.7
20260903141014 68 225 2.6 0.0 0.00 0.00 0.00 95 1011.8
20260903140517 68 226 2.6 0.0 0.00 0.00 0.00 95 1011.8
20260903140019 68 224 1.7 0.0 0.00 0.00 0.00 96 1011.9
20260903135512 68 223 1.7 0.0 0.00 0.00 0.00 96 1011.8
20260903135012 68 212 1.7 0.0 0.00 0.00 0.00 96 1011.9
20260903134510 67 229 0.9 0.0 0.00 0.00 0.00 96 1012.0
20260903134011 67 165 0.9 0.0 0.00 0.00 0.00 96 1011.9
20260903133508 67 202 0.9 0.0 0.00 0.00 0.00 96 1011.8
20260903133012 67 229 1.7 0.0 0.00 0.00 0.00 96 1011.9
20260903132508 67 232 1.7 0.0 0.00 0.00 0.00 97 1011.8
20260903132006 67 241 1.7 0.0 0.00 0.00 0.00 97 1011.9
20260903131506 66 224 0.9 0.0 0.00 0.00 0.00 97 1011.9
20260903131006 66 193 0.9 0.0 0.00 0.00 0.00 97 1012.0
20260903130504 66 188 0.9 0.0 0.00 0.00 0.00 97 1012.0
20260903130003 66 202 0.0 0.0 0.00 0.00 0.00 97 1012.1
20260903125503 66 223 0.9 0.0 0.00 0.00 0.00 97 1012.0
20260903125004 65 223 1.7 0.0 0.00 0.00 0.00 97 1012.2
20260903124504 65 223 1.7 0.0 0.00 0.00 0.00 97 1012.2
20260903124002 65 219 1.7 0.0 0.00 0.00 0.00 97 1012.1
20260903123504 65 225 0.9 0.0 0.00 0.00 0.00 97 1012.1
20260903123100 65 183 0.0 0.0 0.00 0.00 0.00 97 1012.1
20260903122602 65 178 0.0 0.0 0.00 0.00 0.00 97 1012.1
20260903122059 64 161 0.9 0.0 0.00 0.00 0.00 97 1012.2
20260903121559 64 163 0.0 0.0 0.00 0.00 0.00 97 1012.2
20260903121057 64 219 0.0 0.0 0.00 0.00 0.00 97 1012.3
20260903120557 64 219 0.9 0.0 0.00 0.00 0.00 97 1012.3
20260903120057 64 219 0.0 0.0 0.00 0.00 0.00 97 1012.3
20260903115556 64 219 0.0 0.0 0.00 0.00 0.00 97 1012.4
20260903115056 64 219 0.0 0.0 0.00 0.00 0.00 97 1012.3
20260903114556 64 219 0.0 0.0 0.00 0.00 0.00 97 1012.3
20260903114055 63 219 0.9 0.0 0.00 0.00 0.00 97 1012.2
20260903113554 63 219 0.9 0.0 0.00 0.00 0.00 97 1012.2
20260903113054 63 219 0.9 0.0 0.00 0.00 0.00 97 1012.4
20260903112556 63 218 0.9 0.0 0.00 0.00 0.00 97 1012.4
20260903112054 63 217 0.9 0.0 0.00 0.00 0.00 96 1012.4
20260903111603 63 217 1.7 0.0 0.00 0.00 0.00 96 1012.4
20260903111053 63 221 1.7 0.0 0.00 0.00 0.00 96 1012.5
20260903110556 63 220 1.7 0.0 0.00 0.00 0.00 96 1012.5
20260903110053 63 219 1.7 0.0 0.00 0.00 0.00 96 1012.5
20260903105553 63 218 0.9 0.0 0.00 0.00 0.00 96 1012.4
20260903105053 63 202 0.0 0.0 0.00 0.00 0.00 96 1012.5
20260903104554 63 148 0.0 0.0 0.00 0.00 0.00 96 1012.4
20260903104053 63 148 0.9 0.0 0.00 0.00 0.00 96 1012.4
20260903103552 63 148 0.9 0.0 0.00 0.00 0.00 96 1012.2
20260903103052 63 148 0.9 0.0 0.00 0.00 0.00 96 1012.2
20260903102553 63 148 0.0 0.0 0.00 0.00 0.00 96 1012.2
20260903102051 63 148 0.0 0.0 0.00 0.00 0.00 96 1012.1
20260903101557 63 148 0.0 0.0 0.00 0.00 0.00 96 1012.2
20260903101051 63 148 0.0 0.0 0.00 0.00 0.00 96 1012.2
20260903100551 63 148 0.9 0.0 0.00 0.00 0.00 96 1012.2
20260903100054 63 148 2.6 0.0 0.00 0.00 0.00 96 1012.3
20260903095550 63 149 3.5 0.0 0.00 0.00 0.00 96 1012.3
20260903095050 63 139 3.5 0.0 0.00 0.00 0.00 96 1012.3
20260903094556 63 134 3.5 0.0 0.00 0.00 0.00 96 1012.2
20260903094051 63 141 4.3 0.0 0.00 0.00 0.00 96 1012.2
20260903093621 63 136 4.3 0.0 0.00 0.00 0.00 96 1012.1
20260903093057 63 134 3.5 0.0 0.00 0.00 0.00 96 1012.2
20260903092551 63 134 3.5 0.0 0.00 0.00 0.00 96 1012.3
20260903092049 63 134 3.5 0.0 0.00 0.00 0.00 96 1012.2
20260903091549 63 137 3.5 0.0 0.00 0.00 0.00 96 1012.1
20260903091049 63 138 3.5 0.0 0.00 0.00 0.00 96 1012.0
20260903090549 63 136 2.6 0.0 0.00 0.00 0.00 96 1011.9
20260903090049 63 144 1.7 0.0 0.00 0.00 0.00 96 1012.1
20260903085548 63 163 3.5 0.0 0.00 0.00 0.00 96 1012.2
20260903085049 63 138 3.5 0.0 0.00 0.00 0.00 96 1012.0
20260903084548 63 137 3.5 0.0 0.00 0.00 0.00 96 1012.1
20260903084048 63 134 3.5 0.0 0.00 0.00 0.00 96 1012.1
20260903083547 63 152 3.5 0.0 0.00 0.00 0.00 96 1012.1
20260903083052 63 135 4.3 0.0 0.00 0.00 0.00 96 1012.2
20260903082548 63 137 3.5 0.0 0.00 0.00 0.00 96 1012.4
20260903082045 63 140 3.5 0.0 0.00 0.00 0.00 96 1012.4
20260903081548 63 131 3.5 0.0 0.00 0.00 0.00 96 1012.2
20260903081045 63 151 3.5 0.0 0.00 0.00 0.00 96 1012.3
20260903080548 63 137 4.3 0.0 0.00 0.00 0.00 96 1012.3
20260903080048 63 133 5.2 0.0 0.00 0.00 0.00 96 1012.3
20260903075544 63 135 6.1 0.0 0.00 0.00 0.00 96 1012.3
20260903075044 63 135 5.2 0.0 0.00 0.00 0.00 96 1012.2
20260903074545 63 132 5.2 0.0 0.00 0.00 0.00 96 1012.3
20260903074044 63 136 6.1 0.0 0.00 0.00 0.00 96 1012.3
20260903073543 63 136 6.1 0.0 0.00 0.00 0.00 96 1012.4
20260903073043 63 133 5.2 0.0 0.00 0.00 0.00 96 1012.4
20260903072542 63 128 5.2 0.0 0.00 0.00 0.00 96 1012.4
20260903072042 63 148 5.2 0.0 0.00 0.00 0.00 96 1012.4
20260903071543 63 135 6.1 0.0 0.00 0.00 0.00 96 1012.4
20260903071042 63 140 7.0 0.0 0.00 0.00 0.00 96 1012.4
20260903070544 63 130 6.1 0.0 0.00 0.00 0.00 96 1012.5
20260903070041 63 155 6.1 0.0 0.00 0.00 0.00 96 1012.4
20260903065541 63 111 7.0 0.0 0.00 0.00 0.00 96 1012.4
20260903065040 63 126 7.0 0.0 0.00 0.00 0.00 96 1012.4
20260903064542 63 134 7.0 0.0 0.00 0.00 0.00 96 1012.4
20260903064040 63 129 6.1 0.0 0.00 0.00 0.00 96 1012.4
20260903063539 63 140 5.2 0.0 0.00 0.00 0.00 96 1012.4
20260903063039 63 129 5.2 0.0 0.00 0.00 0.00 96 1012.3
20260903062539 63 134 6.1 0.0 0.00 0.00 0.00 96 1012.3
20260903062039 63 131 7.8 0.0 0.00 0.00 0.00 96 1012.3
20260903061550 63 135 7.0 0.0 0.00 0.00 0.00 96 1012.2
20260903061037 63 130 5.2 0.0 0.00 0.00 0.00 96 1012.4
20260903060536 63 130 4.3 0.0 0.00 0.00 0.00 96 1012.5
20260903060040 63 136 5.2 0.0 0.00 0.00 0.00 96 1012.5
20260903055535 63 123 4.3 0.0 0.00 0.00 0.00 95 1012.6
20260903055035 63 133 5.2 0.0 0.00 0.00 0.00 95 1012.6
20260903054536 63 148 4.3 0.0 0.00 0.00 0.00 95 1012.5
20260903054035 63 156 2.6 0.0 0.00 0.00 0.00 95 1012.6
20260903053535 63 157 4.3 0.0 0.00 0.00 0.00 95 1012.7
20260903053035 63 138 5.2 0.0 0.00 0.00 0.00 95 1012.6
20260903052536 63 138 4.3 0.0 0.00 0.00 0.00 95 1012.8
20260903052034 63 124 3.5 0.0 0.00 0.00 0.00 95 1012.8
20260903051533 63 162 2.6 0.0 0.00 0.00 0.00 95 1013.0
20260903051034 63 130 3.5 0.0 0.00 0.00 0.00 95 1013.1
20260903050533 63 130 3.5 0.0 0.00 0.00 0.00 95 1013.1
20260903050034 63 128 2.6 0.0 0.00 0.00 0.00 95 1013.1
20260903045533 63 148 1.7 0.0 0.00 0.00 0.00 95 1013.2
20260903045036 63 148 1.7 0.0 0.00 0.00 0.00 95 1013.1
20260903044536 63 157 3.5 0.0 0.00 0.00 0.00 95 1013.0
20260903044035 63 150 4.3 0.0 0.00 0.00 0.00 95 1013.2
20260903043532 63 128 1.7 0.0 0.00 0.00 0.00 95 1013.2
20260903043040 63 215 2.6 0.0 0.00 0.00 0.00 95 1013.1
20260903042532 63 221 3.5 0.0 0.00 0.00 0.00 95 1013.2
20260903042032 63 128 2.6 0.0 0.00 0.00 0.00 94 1013.1
20260903041531 63 147 3.5 0.0 0.00 0.00 0.00 94 1012.9
20260903041030 63 190 3.5 0.0 0.00 0.00 0.00 94 1012.8
20260903040530 63 154 3.5 0.0 0.00 0.00 0.00 94 1012.7
20260903040029 63 172 6.1 0.0 0.00 0.00 0.00 94 1012.8
20260903035530 63 142 7.8 0.0 0.00 0.00 0.00 94 1012.1
20260903035028 63 143 7.8 0.0 0.00 0.00 0.00 94 1012.2
20260903034538 63 135 7.8 0.0 0.00 0.00 0.00 93 1012.5
20260903034025 63 152 7.8 0.0 0.00 0.00 0.00 93 1012.8
20260903033524 63 127 7.8 0.0 0.00 0.00 0.00 92 1013.3
20260903033023 63 134 7.0 0.0 0.00 0.00 0.00 92 1013.5
20260903032526 63 118 6.1 0.0 0.00 0.00 0.00 92 1013.9
20260903032021 63 122 6.1 0.0 0.00 0.00 0.00 91 1013.9
20260903031521 64 164 5.2 0.0 0.00 0.00 0.00 90 1013.9
20260903031021 64 151 6.1 0.0 0.00 0.00 0.00 90 1013.9
20260903030521 64 134 6.1 0.0 0.00 0.00 0.00 89 1014.0
20260903030021 64 138 6.1 0.0 0.00 0.00 0.00 89 1013.9
20260903025520 64 158 6.1 0.0 0.00 0.00 0.00 88 1013.9
20260903025020 64 151 6.1 0.0 0.00 0.00 0.00 88 1013.9
20260903024520 64 149 6.1 0.0 0.00 0.00 0.00 88 1014.0
20260903024019 64 138 5.2 0.0 0.00 0.00 0.00 88 1014.1
20260903023518 64 126 5.2 0.0 0.00 0.00 0.00 87 1014.1
20260903023019 64 123 6.1 0.0 0.00 0.00 0.00 87 1014.2
20260903022518 64 135 7.0 0.0 0.00 0.00 0.00 87 1014.2
20260903022018 64 120 6.1 0.0 0.00 0.00 0.00 87 1014.1
20260903021522 64 132 4.3 0.0 0.00 0.00 0.00 87 1014.2
20260903021017 64 153 3.5 0.0 0.00 0.00 0.00 86 1014.4
20260903020518 64 140 5.2 0.0 0.00 0.00 0.00 86 1014.5
20260903020036 64 147 4.3 0.0 0.00 0.00 0.00 86 1014.7
20260903015522 64 146 4.3 0.0 0.00 0.00 0.00 86 1014.8
20260903015018 64 127 4.3 0.0 0.00 0.00 0.00 86 1015.2
20260903014517 64 158 4.3 0.0 0.00 0.00 0.00 86 1015.3
20260903014018 64 165 3.5 0.0 0.00 0.00 0.00 86 1015.1
20260903013520 64 151 4.3 0.0 0.00 0.00 0.00 86 1015.1
20260903013016 64 144 4.3 0.0 0.00 0.00 0.00 86 1015.2
20260903012518 64 150 4.3 0.0 0.00 0.00 0.00 86 1015.3
20260903012020 64 130 2.6 0.0 0.00 0.00 0.00 85 1015.3
20260903011516 64 136 2.6 0.0 0.00 0.00 0.00 85 1015.4
20260903011016 64 164 1.7 0.0 0.00 0.00 0.00 84 1015.5
20260903010515 64 175 1.7 0.0 0.00 0.00 0.00 84 1015.6
20260903010016 65 204 0.9 0.0 0.00 0.00 0.00 84 1015.7
20260903005517 65 178 1.7 0.0 0.00 0.00 0.00 83 1015.8
20260903005015 64 183 2.6 0.0 0.00 0.00 0.00 83 1015.6
20260903004515 65 171 2.6 0.0 0.00 0.00 0.00 84 1015.9
20260903004020 65 237 1.7 0.0 0.00 0.00 0.00 83 1015.8
20260903003515 65 219 1.7 0.0 0.00 0.00 0.00 84 1015.6
20260903003014 65 170 2.6 0.0 0.00 0.00 0.00 84 1015.5
20260903002514 65 141 3.5 0.0 0.00 0.00 0.00 84 1015.6
20260903002014 65 146 3.5 0.0 0.00 0.00 0.00 84 1015.4
20260903001514 65 149 3.5 0.0 0.00 0.00 0.00 85 1015.4
20260903001013 65 219 4.3 0.0 0.00 0.00 0.00 84 1015.3
20260903000519 65 158 4.3 0.0 0.00 0.00 0.00 85 1015.3
20260903000014 65 185 4.3 0.0 0.00 0.00 0.00 85 1015.0
20260902235514 65 153 5.2 0.0 0.00 0.00 0.00 85 1014.8
20260902235013 65 172 6.1 0.0 0.00 0.00 0.00 86 1014.5
20260902234518 65 155 5.2 0.0 0.00 0.00 0.00 86 1014.3
20260902234013 65 148 6.1 0.0 0.00 0.00 0.00 86 1014.2
20260902233512 65 156 7.8 0.0 0.00 0.00 0.00 85 1014.0
20260902233015 65 167 7.0 0.0 0.00 0.00 0.00 86 1014.1
20260902232512 65 121 6.1 0.0 0.00 0.00 0.00 86 1014.4
20260902232011 65 150 5.2 0.0 0.00 0.00 0.00 86 1014.1
20260902231515 65 119 5.2 0.0 0.00 0.00 0.00 86 1014.3
20260902231011 65 122 6.1 0.0 0.00 0.00 0.00 86 1014.2
20260902230510 65 134 6.1 0.0 0.00 0.00 0.00 86 1014.1
20260902230009 65 171 3.5 0.0 0.00 0.00 0.00 86 1014.8
20260902225507 65 149 1.7 0.0 0.00 0.00 0.00 86 1015.3
20260902225007 65 217 2.6 0.0 0.00 0.00 0.00 86 1015.5
20260902224506 65 148 1.7 0.0 0.00 0.00 0.00 86 1015.8
20260902224005 65 159 0.9 0.0 0.00 0.00 0.00 86 1016.0
20260902223505 65 150 0.9 0.0 0.00 0.00 0.00 86 1016.3
20260902223005 65 139 0.9 0.0 0.00 0.00 0.00 85 1016.3
20260902222505 66 128 1.7 0.0 0.00 0.00 0.00 86 1016.4
20260902222004 66 119 1.7 0.0 0.00 0.00 0.00 85 1016.4
20260902221506 66 135 2.6 0.0 0.00 0.00 0.00 86 1016.5
20260902221004 66 185 3.5 0.0 0.00 0.00 0.00 86 1016.6
20260902220504 66 175 2.6 0.0 0.00 0.00 0.00 86 1016.5
20260902220005 66 121 1.7 0.0 0.00 0.00 0.00 86 1016.5
20260902215503 66 198 1.7 0.0 0.00 0.00 0.00 86 1016.6
20260902215003 66 148 1.7 0.0 0.00 0.00 0.00 86 1016.7
20260902214504 66 224 2.6 0.0 0.00 0.00 0.00 87 1016.6
20260902214004 66 119 2.6 0.0 0.00 0.00 0.00 86 1016.7
20260902213502 66 244 4.3 0.0 0.00 0.00 0.00 85 1016.9
20260902213002 66 196 5.2 0.0 0.00 0.00 0.00 86 1016.8
20260902212503 66 144 5.2 0.0 0.00 0.00 0.00 86 1016.7
20260902212002 67 148 5.2 0.0 0.00 0.00 0.00 85 1016.6
20260902211502 67 148 5.2 0.0 0.00 0.00 0.00 86 1016.6
20260902211002 67 129 5.2 0.0 0.00 0.00 0.00 85 1016.6
20260902210502 67 159 4.3 0.0 0.00 0.00 0.00 85 1016.6
20260902210004 67 146 5.2 0.0 0.00 0.00 0.00 85 1016.8
20260902205504 67 225 4.3 0.0 0.00 0.00 0.00 85 1016.9
20260902205003 67 142 4.3 0.0 0.00 0.00 0.00 85 1016.9
20260902204505 67 117 6.1 0.0 0.00 0.00 0.00 85 1016.9
20260902204001 67 121 7.0 0.0 0.00 0.00 0.00 85 1016.7
20260902203500 67 128 5.2 0.0 0.00 0.00 0.00 85 1016.6
20260902203102 67 167 5.2 0.0 0.00 0.00 0.00 84 1016.7
20260902202559 67 136 5.2 0.0 0.00 0.00 0.00 86 1016.7
20260902202059 67 147 7.0 0.0 0.00 0.00 0.00 86 1016.6
20260902201605 67 148 7.8 0.0 0.00 0.00 0.00 86 1016.4
20260902201100 67 117 7.0 0.0 0.00 0.00 0.00 87 1016.6
20260902200556 67 159 7.0 0.0 0.00 0.00 0.00 86 1016.8
20260902200056 66 126 7.0 0.0 0.00 0.00 0.00 86 1017.1
20260902195555 66 141 6.1 0.0 0.00 0.00 0.00 86 1016.9
20260902195057 66 130 5.2 0.0 0.00 0.00 0.00 87 1017.1
20260902194556 66 145 4.3 0.0 0.00 0.00 0.00 87 1017.2
20260902194056 66 155 3.5 0.0 0.00 0.00 0.00 87 1017.1
20260902193554 66 149 4.3 0.0 0.00 0.00 0.00 86 1017.0
20260902193058 66 122 6.1 0.0 0.00 0.00 0.00 87 1016.8
20260902192553 66 149 7.0 0.0 0.00 0.00 0.00 86 1016.9
20260902192053 66 125 6.1 0.0 0.00 0.00 0.00 87 1017.1
20260902191553 66 77 6.1 0.0 0.00 0.00 0.00 86 1017.3
20260902191052 66 136 7.0 0.0 0.00 0.00 0.00 86 1016.9
20260902190552 66 163 7.0 0.0 0.00 0.00 0.00 87 1016.9
20260902190051 66 144 5.2 0.0 0.00 0.00 0.00 87 1017.0
20260902185551 66 131 3.5 0.0 0.00 0.00 0.00 88 1017.2
20260902185051 65 153 4.3 0.0 0.00 0.00 0.00 87 1017.4
20260902184555 65 142 6.1 0.0 0.00 0.00 0.00 87 1017.3
20260902184055 65 135 5.2 0.0 0.00 0.00 0.00 86 1017.3
20260902183550 65 160 4.3 0.0 0.00 0.00 0.00 86 1017.5
20260902183050 65 135 5.2 0.0 0.00 0.00 0.00 87 1017.4
20260902182549 65 140 6.1 0.0 0.00 0.00 0.00 87 1017.4
20260902182049 65 116 7.0 0.0 0.00 0.00 0.00 87 1017.4
20260902181554 65 137 6.1 0.0 0.00 0.00 0.00 87 1017.4
20260902181050 65 118 4.3 0.0 0.00 0.00 0.00 89 1017.4
20260902180549 65 122 4.3 0.0 0.00 0.00 0.00 90 1017.6
20260902180049 64 104 4.3 0.0 0.00 0.00 0.00 90 1017.6
20260902175549 64 140 3.5 0.0 0.00 0.00 0.00 91 1017.6
20260902175049 63 148 3.5 0.0 0.00 0.00 0.00 92 1017.8
20260902174550 63 161 3.5 0.0 0.00 0.00 0.00 91 1017.7
20260902174049 63 146 1.7 0.0 0.00 0.00 0.00 90 1017.8
20260902173548 63 156 0.9 0.0 0.00 0.00 0.00 89 1018.4
20260902173050 63 128 0.9 0.0 0.00 0.00 0.00 88 1018.3
20260902172549 63 123 2.6 0.0 0.00 0.00 0.00 88 1018.3
20260902172048 63 105 2.6 0.0 0.00 0.00 0.00 88 1017.7
20260902171603 63 174 3.5 0.0 0.00 0.00 0.00 88 1017.6
20260902171047 63 185 2.6 0.0 0.00 0.00 0.00 87 1017.8
20260902170549 63 213 2.6 0.0 0.00 0.00 0.00 87 1017.6
20260902170048 63 156 3.5 0.0 0.00 0.00 0.00 87 1017.5
20260902165547 63 151 3.5 0.0 0.00 0.00 0.00 88 1017.5
20260902165047 63 123 2.6 0.0 0.00 0.00 0.00 88 1017.4
20260902164547 63 161 3.5 0.0 0.00 0.00 0.00 88 1017.7
20260902164050 63 165 4.3 0.0 0.00 0.00 0.00 87 1017.8
20260902163547 63 127 4.3 0.0 0.00 0.00 0.00 88 1017.7
20260902163046 63 127 5.2 0.0 0.00 0.00 0.00 88 1017.8
20260902162545 63 119 4.3 0.0 0.00 0.00 0.00 89 1017.9
20260902162050 63 125 4.3 0.0 0.00 0.00 0.00 88 1018.1
20260902161545 63 140 3.5 0.0 0.00 0.00 0.00 88 1018.2
20260902161044 63 159 2.6 0.0 0.00 0.00 0.00 88 1018.3
20260902160544 63 132 2.6 0.0 0.00 0.00 0.00 88 1018.5
20260902160053 63 132 2.6 0.0 0.00 0.00 0.00 88 1018.4
20260902155544 63 140 3.5 0.0 0.00 0.00 0.00 89 1018.2
20260902155044 63 116 4.3 0.0 0.00 0.00 0.00 89 1018.2
20260902154545 63 159 3.5 0.0 0.00 0.00 0.00 89 1018.4
20260902154043 63 130 2.6 0.0 0.00 0.00 0.00 89 1018.5
20260902153542 63 129 2.6 0.0 0.00 0.00 0.00 88 1018.5
20260902153042 63 154 3.5 0.0 0.00 0.00 0.00 88 1018.4
20260902152541 63 148 3.5 0.0 0.00 0.00 0.00 88 1018.6